Weather History for Kalaeloa, HI

Change the Weather History Date:

Monday, October 8, 2012

  Actual Average (PHNL) Record (PHNL)
Temperature  
Mean Temperature 78 °F 81 °F  
Max Temperature 81 °F 87 °F 92 °F (2004)
Min Temperature 75 °F 74 °F 66 °F (1966)
Degree Days  
Heating Degree Days 0 0  
Month to date heating degree days 0  
Since 1 July heating degree days 0  
Cooling Degree Days 13 16  
Month to date cooling degree days 128  
Year to date cooling degree days 3607  
Growing Degree Days 28 (Base 50)    
Moisture  
Dew Point 72 °F    
Average Humidity 83    
Maximum Humidity 90    
Minimum Humidity 72    
Precipitation  
Precipitation 0.00 in 0.05 in 0.39 in (1979)
Month to date precipitation 0.36  
Year to date precipitation 9.96  
Snow  
Snow 0.00 in - - ()
Month to date snowfall  
Since 1 July snowfall  
Since 1 September snowfall  
Snow Depth -    
Sea Level Pressure  
Sea Level Pressure 29.95 in    
Wind  
Wind Speed 9 mph (SSW)    
Max Wind Speed 13 mph    
Max Gust Speed -    
Visibility 9 miles    
Events      
T = Trace of Precipitation, MM = Missing Value Source: NWS Daily Summary

Daily Weather History Graph

Daily Weather History Graph

Search for Another Location

Airport:

Trip Planner

Search our weather history database for the weather conditions in past years. The results will help you decide how hot, cold, wet, or windy it might be!

Date:

Astronomy

Oct. 08, 2012 Rise Set
Actual Time 6:25 AM HST 6:13 PM HST
Civil Twilight 6:03 AM HST 6:35 PM HST
Nautical Twilight 5:37 AM HST 7:01 PM HST
Astronomical Twilight 5:11 AM HST 7:26 PM HST
Moon 12:03 AM HST (10/8) 1:25 PM HST (10/8)
Length of Visible Light 12h 31m
Length of Day
11h 47m
Last Quarter, 44% of the Moon is Illuminated
Oct 8
Last Quarter
Oct 15
New
Oct 21
First Quarter
Oct 29
Full
Nov 6
Last Quarter

Hourly Weather History & Observations

Time (HST) Temp. Heat Index Dew Point Humidity Pressure Visibility Wind Dir Wind Speed Gust Speed Precip Events Conditions
12:23 AM 77.0 °F - 71.6 °F 83% 29.92 in 8.0 mi SW 12.7 mph - N/A   Mostly Cloudy
12:40 AM 77.0 °F - 71.6 °F 83% 29.92 in 8.0 mi SW 12.7 mph - N/A   Mostly Cloudy
12:53 AM 77.0 °F - 72.0 °F 84% 29.94 in 8.0 mi SSW 11.5 mph - N/A   Mostly Cloudy
1:53 AM 75.9 °F - 71.1 °F 85% 29.93 in 10.0 mi SW 11.5 mph - N/A   Partly Cloudy
2:40 AM 75.2 °F - 71.6 °F 89% 29.90 in 9.0 mi SW 9.2 mph - N/A   Partly Cloudy
2:53 AM 75.9 °F - 71.1 °F 85% 29.92 in 10.0 mi SSW 10.4 mph - N/A   Scattered Clouds
3:53 AM 75.9 °F - 71.1 °F 85% 29.91 in 10.0 mi SW 8.1 mph - N/A   Partly Cloudy
4:53 AM 75.0 °F - 71.1 °F 87% 29.91 in 10.0 mi SSW 6.9 mph - N/A   Scattered Clouds
5:07 AM 75.2 °F - 71.6 °F 89% 29.90 in 10.0 mi SW 8.1 mph - N/A   Mostly Cloudy
5:17 AM 75.2 °F - 71.6 °F 89% 29.90 in 10.0 mi SW 8.1 mph - N/A   Scattered Clouds
5:53 AM 75.0 °F - 71.1 °F 87% 29.93 in 10.0 mi SW 6.9 mph - N/A   Partly Cloudy
6:34 AM 75.2 °F - 71.6 °F 89% 29.91 in 9.0 mi SSW 6.9 mph - N/A   Mostly Cloudy
6:53 AM 75.0 °F - 71.1 °F 87% 29.94 in 10.0 mi SSW 9.2 mph - N/A   Mostly Cloudy
7:11 AM 75.2 °F - 71.6 °F 89% 29.92 in 10.0 mi SSW 6.9 mph - N/A   Partly Cloudy
7:53 AM 77.0 °F - 71.1 °F 82% 29.95 in 10.0 mi SSW 6.9 mph - N/A   Clear
8:53 AM 79.0 °F - 72.0 °F 79% 29.97 in 10.0 mi South 6.9 mph - N/A   Mostly Cloudy
9:02 AM 78.8 °F - 71.6 °F 78% 29.95 in 10.0 mi South 8.1 mph - N/A   Mostly Cloudy
9:53 AM 80.1 °F 83.8 °F 72.0 °F 76% 29.98 in 10.0 mi South 9.2 mph - N/A   Partly Cloudy
10:53 AM 80.1 °F 83.6 °F 71.1 °F 74% 29.99 in 10.0 mi South 9.2 mph - N/A   Partly Cloudy
11:53 AM 81.0 °F 85.2 °F 72.0 °F 74% 29.97 in 10.0 mi South 10.4 mph - N/A   Partly Cloudy
12:53 PM 81.0 °F 84.9 °F 71.1 °F 72% 29.96 in 10.0 mi SSW 9.2 mph - N/A   Partly Cloudy
1:53 PM 81.0 °F 85.2 °F 72.0 °F 74% 29.94 in 10.0 mi South 10.4 mph - N/A   Clear
2:53 PM 81.0 °F 84.9 °F 71.1 °F 72% 29.93 in 10.0 mi SSW 10.4 mph - N/A   Partly Cloudy
3:53 PM 81.0 °F 85.2 °F 72.0 °F 74% 29.93 in 10.0 mi SSW 9.2 mph - N/A   Clear
4:53 PM 80.1 °F 83.8 °F 72.0 °F 76% 29.94 in 8.0 mi South 9.2 mph - N/A   Partly Cloudy
5:53 PM 78.1 °F - 71.1 °F 79% 29.96 in 7.0 mi South 8.1 mph - N/A   Partly Cloudy
6:53 PM 77.0 °F - 71.1 °F 82% 29.97 in 8.0 mi South 5.8 mph - N/A   Partly Cloudy
7:25 PM 77.0 °F - 71.6 °F 83% 29.96 in 6.0 mi South 5.8 mph - N/A   Haze
7:39 PM 77.0 °F - 71.6 °F 83% 29.97 in 6.0 mi South 5.8 mph - N/A   Haze
7:53 PM 77.0 °F - 72.0 °F 84% 29.99 in 6.0 mi South 5.8 mph - N/A   Haze
8:53 PM 75.9 °F - 72.0 °F 87% 30.01 in 6.0 mi South 4.6 mph - N/A   Partly Cloudy
9:53 PM 75.9 °F - 72.0 °F 87% 30.02 in 6.0 mi South 5.8 mph - N/A   Clear
10:53 PM 75.0 °F - 72.0 °F 90% 30.01 in 6.0 mi SE 5.8 mph - N/A   Scattered Clouds
11:53 PM 75.0 °F - 72.0 °F 90% 30.01 in 6.0 mi SSE 5.8 mph - N/A   Scattered Clouds